Overview Statistics Trail Chart Weather Telemetry Raw packets
 

This is the latest recevied weather packets stored in our database for station/object M0HPP-13. If no packets are shown the sender has not sent any weather packets the latest 10 day(s).

<< 8 9 10 11 12 13 14 >>
Time Temp. Humidity Pressure Rain* Wind** Luminosity Snow
1788495486 11.11° C 90% 997.1 hPa 0 mm - 0 W/m² -
1788494886 11.67° C 88% 997.1 hPa 0 mm - 0 W/m² -
1788494286 11.67° C 86% 997.2 hPa 0 mm - 0 W/m² -
1788493686 12.22° C 85% 997.2 hPa 0 mm - 0 W/m² -
1788493086 12.22° C 83% 997.3 hPa 0 mm - 0 W/m² -
1788492486 12.78° C 80% 997.5 hPa 0 mm - 0 W/m² -
1788491886 12.22° C 83% 997.6 hPa 0 mm - 0 W/m² -
1788491315 12.22° C 84% 997.7 hPa 0 mm - 0 W/m² -
1788490686 11.67° C 87% 997.8 hPa 0 mm - 0 W/m² -
1788490086 11.67° C 91% 998 hPa 0 mm - 0 W/m² -
1788489498 11.67° C 92% 998.2 hPa 0 mm - 0 W/m² -
1788488886 11.67° C 92% 998.3 hPa 0 mm - 0 W/m² -
1788488286 11.67° C 92% 998.2 hPa 0 mm - 0 W/m² -
1788487686 11.67° C 92% 998.2 hPa 0 mm - 0 W/m² -
1788487086 11.67° C 90% 998.3 hPa 0 mm - 0 W/m² -
1788486486 12.22° C 87% 998.3 hPa 0 mm - 0 W/m² -
1788485886 11.67° C 90% 998.4 hPa 0 mm - 0 W/m² -
1788485286 11.67° C 92% 998.6 hPa 0 mm - 0 W/m² -
1788484686 10.56° C 97% 998.6 hPa 0 mm - 0 W/m² -
1788484086 10.56° C 98% 999 hPa 0 mm - 0 W/m² -
1788483486 11.11° C 98% 999.3 hPa 0 mm - 0 W/m² -
1788482886 11.11° C 98% 999.3 hPa 0 mm - 0 W/m² -
1788482286 10.56° C 98% 999.5 hPa 0 mm - 0 W/m² -
1788481686 10.56° C 98% 999.4 hPa 0 mm - 0 W/m² -
1788481086 10.56° C 98% 999.6 hPa 0 mm - 0 W/m² -

* Rain latest hour (hover to see other rain measurements)
** Current wind speed in m/s (hover to see current wind gust speed)